Vorticity
4 5 5 8 8 9 11 8 7 8 6 7 9 10 13 12 9 9 8 9 12 11 6 3 4 4 5 6 5 5 8 10 12 13 12 11 12 14 15 17 18 18
4 5 6 8 8 10 12 8 6 7 7 8 9 10 12 12 10 9 8 9 10 11 9 4 3 3 4 6 6 5 5 7 10 11 13 12 9 10 11 13 15 14
5 5 6 8 8 11 12 7 6 7 7 8 8 9 12 12 11 10 9 8 9 11 10 7 4 3 4 4 6 6 5 5 7 8 10 14 13 11 8 9 15 15
5 5 6 8 7 12 12 6 5 7 7 8 8 9 11 12 12 10 9 9 8 9 11 9 6 3 3 4 4 6 6 5 5 6 7 9 14 16 13 8 8 13
5 5 7 8 7 13 12 5 5 7 7 8 9 9 10 11 13 11 10 10 8 8 10 10 8 4 3 3 4 4 6 6 5 6 6 6 8 12 16 14 8 8
5 5 7 7 8 14 12 4 5 7 7 8 9 9 9 10 13 12 10 10 9 8 9 10 10 7 3 3 3 3 4 6 6 6 6 5 6 7 10 16 14 9
6 5 7 7 8 15 12 4 5 7 7 9 9 8 9 9 12 13 11 10 9 9 9 9 10 8 6 3 3 4 3 5 6 6 6 6 6 6 5 10 15 14
6 5 7 7 9 15 12 3 5 7 7 9 8 8 9 9 11 12 12 11 10 10 9 9 11 9 7 5 3 4 3 3 5 6 6 6 6 7 5 5 9 13
6 5 7 7 10 16 11 3 5 6 7 9 8 8 9 9 11 12 13 12 10 10 10 9 11 10 9 7 4 4 3 2 4 5 6 6 6 7 6 5 5 6
6 5 7 7 10 17 10 3 5 6 8 9 6 8 10 10 11 11 12 12 10 10 10 9 11 11 11 10 6 5 4 3 3 4 5 6 6 6 6 6 6 5
5 5 8 7 10 17 10 3 5 7 7 7 5 7 9 11 12 11 12 13 11 10 9 9 10 10 11 12 9 6 5 3 3 3 4 5 5 6 7 6 6 6
5 6 8 6 11 17 10 3 5 7 7 7 5 5 7 10 13 12 12 13 12 11 9 8 10 10 10 11 11 10 7 5 3 3 3 5 5 5 6 7 6 6
5 7 8 6 11 17 10 3 4 7 6 6 5 3 4 7 12 13 13 13 12 12 11 9 8 9 9 10 11 12 11 8 5 3 2 3 5 5 5 6 7 6
5 8 9 5 11 17 10 3 4 7 7 6 5 4 3 4 9 12 12 13 13 12 12 11 9 7 8 9 10 11 12 11 9 6 3 3 4 5 5 6 6 7
6 9 9 5 11 17 10 3 4 6 7 6 5 4 3 3 6 10 13 14 14 13 12 12 10 8 7 8 9 10 11 12 11 9 5 3 3 4 4 5 6 7
7 10 8 5 10 17 11 4 4 6 6 7 5 4 3 3 4 7 12 15 14 14 12 12 12 9 6 8 10 11 11 11 12 12 9 5 4 3 4 4 5 6
9 10 7 5 10 16 12 4 4 5 6 6 6 5 4 3 3 5 10 15 15 14 12 13 14 9 4 6 12 14 14 12 10 12 11 9 6 4 4 4 4 4
10 9 7 5 9 16 14 5 3 5 5 5 6 5 5 4 3 3 7 13 16 15 12 12 14 9 3 6 12 17 18 15 11 11 12 11 9 6 4 4 4 5
10 8 6 6 9 15 16 8 4 4 4 4 5 5 6 5 3 3 5 10 16 16 11 11 13 9 4 6 11 17 19 18 14 11 11 12 12 10 7 5 5 5
10 7 5 7 10 14 17 11 5 4 3 4 5 5 6 5 4 4 4 7 14 17 12 10 12 10 5 6 10 13 17 19 18 15 12 11 13 13 11 8 6 6
10 6 5 9 10 13 17 14 8 5 4 3 4 5 5 6 5 5 4 6 11 17 14 9 10 10 6 5 7 9 11 14 16 17 15 12 12 13 14 12 10 7
9 6 6 10 11 12 16 17 11 7 5 4 5 5 6 7 6 5 5 5 8 15 16 10 7 9 8 5 5 6 7 8 10 12 14 15 14 13 13 14 14 11
8 6 7 10 10 10 14 16 14 11 8 7 6 6 7 7 7 6 6 6 7 13 17 13 7 6 7 7 6 6 6 5 5 6 7 9 12 13 13 13 13 14
7 5 7 8 9 10 11 13 14 13 11 9 8 7 7 7 6 7 7 6 7 11 15 14 10 6 5 5 5 5 6 5 5 5 5 5 6 8 11 12 12 13
7 5 6 7 8 9 10 11 12 13 12 11 9 8 8 7 7 7 7 6 7 11 14 14 11 8 6 4 3 3 4 4 4 5 6 7 6 5 6 9 11 11
7 6 5 6 7 8 8 9 11 12 12 10 9 9 8 7 7 8 8 7 7 11 14 14 12 10 8 6 5 5 6 5 5 4 5 8 11 10 7 7 9 11
Height
5768 5766 5763 5760 5757 5754 5750 5747 5744 5740 5737 5733 5729 5725 5721 5717 5714 5710 5707 5704 5701 5697 5693 5690 5685 5681 5677 5672 5667 5662 5657 5651 5646 5641 5636 5631 5627 5624 5621 5617 5613 5610
5768 5766 5763 5760 5757 5754 5750 5747 5744 5741 5737 5733 5729 5726 5722 5718 5715 5711 5707 5704 5701 5698 5694 5691 5687 5683 5678 5674 5669 5665 5660 5655 5650 5645 5640 5635 5631 5627 5624 5621 5617 5614
5767 5765 5762 5759 5757 5754 5750 5747 5744 5741 5737 5734 5730 5726 5722 5719 5715 5712 5708 5705 5702 5698 5695 5692 5688 5684 5680 5676 5672 5668 5663 5659 5654 5649 5644 5639 5635 5631 5628 5624 5621 5618
5767 5765 5762 5759 5756 5754 5750 5747 5744 5741 5738 5734 5731 5727 5723 5720 5716 5713 5709 5706 5702 5699 5696 5693 5690 5686 5682 5678 5674 5670 5666 5662 5658 5653 5648 5644 5640 5636 5632 5628 5625 5622
5767 5764 5762 5759 5756 5753 5750 5747 5744 5741 5738 5735 5731 5727 5724 5720 5717 5713 5710 5707 5703 5700 5697 5694 5691 5687 5684 5680 5676 5672 5669 5665 5661 5657 5652 5648 5644 5640 5636 5632 5628 5625
5766 5764 5762 5759 5756 5753 5750 5747 5744 5741 5738 5735 5731 5728 5724 5721 5718 5714 5711 5708 5704 5700 5697 5694 5692 5689 5685 5682 5678 5675 5671 5667 5664 5660 5657 5653 5649 5644 5640 5636 5632 5629
5766 5764 5762 5759 5756 5753 5750 5748 5745 5741 5738 5735 5732 5728 5725 5722 5718 5715 5712 5708 5705 5702 5698 5695 5692 5689 5687 5683 5680 5677 5673 5670 5666 5663 5660 5657 5653 5648 5645 5640 5636 5632
5766 5764 5761 5759 5756 5753 5751 5748 5745 5742 5739 5735 5732 5729 5725 5722 5719 5716 5713 5709 5706 5703 5700 5696 5693 5690 5687 5685 5682 5678 5675 5672 5669 5665 5662 5659 5656 5653 5649 5646 5641 5637
5765 5763 5761 5759 5756 5753 5751 5748 5745 5742 5739 5736 5733 5729 5726 5723 5720 5716 5713 5710 5707 5704 5701 5698 5694 5691 5688 5686 5683 5680 5677 5674 5671 5668 5665 5662 5659 5656 5653 5650 5646 5643
5765 5763 5761 5758 5756 5753 5751 5748 5745 5742 5739 5736 5733 5730 5727 5723 5720 5717 5714 5711 5708 5705 5702 5699 5696 5693 5690 5687 5684 5682 5679 5676 5673 5670 5667 5664 5662 5659 5656 5653 5650 5647
5765 5763 5760 5758 5756 5753 5751 5749 5746 5743 5740 5736 5734 5731 5727 5724 5721 5718 5715 5711 5708 5706 5703 5700 5697 5694 5691 5688 5686 5683 5681 5678 5675 5672 5669 5667 5664 5661 5658 5656 5653 5650
5764 5762 5760 5758 5755 5753 5751 5749 5746 5743 5740 5737 5734 5731 5728 5725 5721 5718 5715 5712 5709 5706 5703 5700 5697 5695 5692 5689 5687 5684 5682 5679 5677 5674 5671 5669 5666 5663 5661 5658 5656 5653
5764 5762 5760 5758 5755 5753 5751 5749 5746 5744 5741 5738 5734 5731 5728 5725 5722 5719 5715 5712 5709 5706 5703 5701 5698 5695 5693 5690 5687 5685 5683 5681 5678 5675 5673 5670 5668 5665 5663 5661 5658 5656
5763 5761 5760 5757 5755 5753 5751 5749 5746 5744 5741 5738 5735 5732 5729 5726 5722 5719 5716 5713 5710 5707 5704 5701 5698 5696 5693 5691 5688 5686 5684 5681 5679 5677 5674 5672 5669 5667 5665 5662 5660 5658
5763 5761 5759 5757 5755 5753 5751 5749 5746 5744 5741 5739 5736 5733 5730 5727 5723 5719 5716 5713 5710 5707 5704 5701 5699 5696 5694 5691 5689 5686 5684 5682 5680 5678 5675 5673 5671 5668 5666 5664 5662 5660
5762 5761 5759 5757 5754 5752 5750 5749 5746 5744 5742 5739 5736 5733 5730 5727 5724 5720 5717 5713 5710 5707 5704 5702 5699 5697 5694 5692 5689 5687 5684 5682 5680 5678 5676 5674 5672 5670 5668 5666 5664 5662
5762 5760 5758 5756 5754 5752 5750 5748 5746 5744 5742 5739 5736 5733 5731 5728 5724 5721 5718 5714 5711 5708 5705 5702 5700 5697 5695 5692 5690 5687 5684 5682 5680 5678 5677 5675 5673 5671 5669 5667 5665 5663
5761 5760 5758 5756 5754 5752 5750 5748 5746 5744 5741 5739 5736 5734 5731 5728 5725 5722 5718 5715 5711 5708 5705 5703 5700 5698 5695 5693 5690 5687 5685 5682 5681 5679 5677 5675 5673 5671 5669 5668 5666 5664
5761 5759 5757 5755 5753 5751 5749 5748 5746 5744 5741 5739 5736 5734 5731 5728 5725 5722 5719 5715 5712 5709 5706 5703 5701 5698 5696 5693 5691 5688 5685 5683 5681 5679 5677 5676 5674 5672 5670 5668 5666 5665
5761 5759 5757 5755 5753 5751 5749 5747 5745 5743 5741 5739 5736 5734 5731 5729 5726 5723 5719 5716 5712 5709 5706 5704 5701 5699 5697 5694 5691 5689 5686 5684 5682 5680 5678 5676 5674 5672 5670 5669 5667 5665
5760 5758 5756 5754 5752 5750 5748 5747 5745 5743 5741 5738 5736 5734 5731 5729 5726 5723 5720 5716 5713 5710 5707 5704 5702 5700 5697 5695 5692 5690 5687 5685 5682 5680 5678 5676 5674 5673 5671 5669 5667 5665
5759 5758 5756 5754 5752 5750 5748 5746 5744 5742 5740 5738 5736 5734 5731 5728 5726 5723 5719 5716 5713 5710 5707 5705 5702 5700 5697 5695 5693 5690 5688 5685 5683 5681 5679 5676 5675 5673 5671 5669 5667 5665
5759 5757 5755 5753 5751 5749 5747 5745 5743 5741 5739 5737 5735 5733 5731 5728 5725 5722 5719 5716 5713 5710 5707 5705 5702 5700 5697 5695 5693 5691 5688 5686 5684 5681 5679 5677 5675 5672 5670 5669 5667 5665
5758 5757 5755 5753 5751 5749 5747 5745 5742 5740 5738 5736 5734 5732 5730 5727 5725 5722 5719 5716 5713 5710 5707 5704 5702 5700 5698 5695 5693 5691 5688 5686 5684 5681 5679 5677 5674 5672 5670 5668 5666 5664
5757 5756 5754 5752 5750 5748 5746 5744 5741 5739 5737 5735 5733 5731 5729 5726 5724 5721 5718 5715 5712 5709 5706 5704 5702 5699 5697 5695 5693 5690 5688 5686 5683 5681 5679 5676 5674 5672 5669 5667 5665 5663
5757 5755 5754 5752 5750 5748 5746 5744 5741 5739 5736 5734 5732 5730 5728 5726 5723 5720 5718 5715 5712 5709 5706 5704 5701 5699 5697 5695 5692 5690 5688 5685 5683 5680 5678 5675 5673 5671 5668 5666 5664 5662